This demonstration page uses our WeatherBlox Daily Observations layout. Learn more.

40.92945, -100.16068

Hourly Observations for June 7, 2017

Temp ( °F °C ) Dew Point ( °F °C ) Humidity (%) Winds ( mph kmh ) Pressure ( in mb ) Visibility ( mi km ) Precip ( " mm )
12:15 am 00:15 Mostly Cloudy 66 19 62 16.7 87 87 NNE 3 6 30.03 1017 10 16.0934 0 0
12:35 am 00:35 Mostly Cloudy 66 19 63 17 88 88 NE 5 7 30.03 1017 10 16.0934 0 0
12:55 am 00:55 Partly Cloudy 66 18.8 62 16.5 87 87 NE 6 9 30.03 1017 10 16.0934 0 0
1:15 am 01:15 Mostly Cloudy 65 18.5 62 16.7 89 89 ENE 6 9 30.03 1017 10 16.0934 0 0
1:35 am 01:35 Cloudy 65 18.6 62 16.8 89 89 ENE 7 11 30.03 1017 10 16.0934 0 0
1:55 am 01:55 Cloudy 66 18.8 62 16.8 88 88 ENE 8 13 30.03 1017 10 16.0934 0 0
2:15 am 02:15 Mostly Cloudy 65 18.6 62 16.5 88 88 ENE 6 9 30.03 1017 10 16.0934 0 0
2:35 am 02:35 Partly Cloudy 64 18 61 16.3 90 90 NE 6 9 30.03 1017 10 16.0934 0 0
2:55 am 02:55 Clear 64 18 61 16 88 88 ENE 3 6 30.03 1017 10 16.0934 0 0
3:15 am 03:15 Partly Cloudy 63 17.3 60 15.8 91 91 Calm 30.06 1018 10 16.0934 0 0
3:35 am 03:35 Mostly Cloudy 64 17.5 60 15.6 89 89 S 3 6 30.03 1017 10 16.0934 0 0
3:55 am 03:55 Mostly Cloudy 64 17.6 61 16 90 90 Calm 30.03 1017 10 16.0934 0 0
4:15 am 04:15 Mostly Cloudy 65 18.1 62 16.5 90 90 E 5 7 30.03 1017 10 16.0934 0 0
4:35 am 04:35 Cloudy 65 18.1 61 16.3 89 89 Calm 30.03 1017 10 16.0934 0 0
4:55 am 04:55 Cloudy 64 17.8 61 16 89 89 Calm 30.03 1017 10 16.0934 0 0
5:15 am 05:15 Cloudy 64 18 62 16.5 91 91 WNW 3 6 30.03 1017 10 16.0934 0 0
5:35 am 05:35 Cloudy 64 17.7 62 16.4 92 92 Calm 30.03 1017 10 16.0934 0 0
5:55 am 05:55 Cloudy 64 17.5 61 16.1 92 92 Calm 30.03 1017 7 11.26538 0 0
6:15 am 06:15 Mostly Cloudy 63 17.1 61 15.9 93 93 Calm 30.06 1018 7 11.26538 0 0
6:35 am 06:35 Partly Cloudy 62 16.8 60 15.6 93 93 Calm 30.06 1018 7 11.26538 0 0
6:55 am 06:55 Sunny 62 16.7 60 15.5 93 93 Calm 30.06 1018 7 11.26538 0 0
7:15 am 07:15 Sunny 62 16.8 60 15.7 93 93 Calm 30.06 1018 7 11.26538 0 0
7:35 am 07:35 Partly Cloudy 64 17.7 62 16.5 93 93 NNE 5 7 30.03 1017 10 16.0934 0 0
7:55 am 07:55 Cloudy 65 18.4 62 16.7 90 90 ENE 3 6 30.06 1018 10 16.0934 0 0
8:15 am 08:15 Mostly Cloudy 67 19.5 62 16.7 84 84 ENE 5 7 30.03 1017 10 16.0934 0 0
8:35 am 08:35 Partly Cloudy 68 19.9 62 16.6 81 81 Calm 30.06 1018 10 16.0934 0 0
8:55 am 08:55 Mostly Cloudy 69 20.4 63 17 81 81 Calm 30.06 1018 10 16.0934 0 0
9:15 am 09:15 Cloudy 70 21.2 63 17.1 78 78 Calm 30.03 1017 10 16.0934 0 0
9:35 am 09:35 Partly Cloudy 72 22 63 17.3 75 75 Calm 30.03 1017 10 16.0934 0 0
9:55 am 09:55 Sunny 73 22.6 62 16.8 70 70 SSE 5 7 30.03 1017 10 16.0934 0 0
10:15 am 10:15 Sunny 73 23 63 17.1 70 70 S 3 6 30 1016 10 16.0934 0 0
10:35 am 10:35 Sunny 74 23.5 63 17.2 68 68 Calm 30 1016 10 16.0934 0 0
10:55 am 10:55 Sunny 75 23.8 62 16.9 65 65 Calm 30 1016 10 16.0934 0 0
11:15 am 11:15 Sunny 76 24.2 62 16.9 64 64 Calm 30 1016 10 16.0934 0 0
11:35 am 11:35 Sunny 77 25 63 17.1 62 62 Calm 29.97 1015 10 16.0934 0 0
11:55 am 11:55 Sunny 78 25.5 62 16.7 58 58 Calm 29.97 1015 10 16.0934 0 0
12:15 pm 12:15 Partly Cloudy 77 25 62 16.5 59 59 Calm 29.97 1015 10 16.0934 0 0
12:35 pm 12:35 Partly Cloudy 79 26.1 63 17.1 58 58 SE 3 6 29.97 1015 10 16.0934 0 0
12:55 pm 12:55 Mostly Cloudy 78 25.5 61 16.3 57 57 SSE 3 6 29.97 1015 10 16.0934 0 0
1:15 pm 13:15 Mostly Cloudy 79 26 62 16.6 56 56 SE 9 15 29.97 1015 10 16.0934 0 0
1:35 pm 13:35 Mostly Cloudy 80 26.5 62 16.7 55 55 SSE 8 13 29.94 1014 10 16.0934 0 0
1:55 pm 13:55 Partly Cloudy 81 27.1 60 15.7 50 50 SSE 7 11 29.94 1014 10 16.0934 0 0
2:15 pm 14:15 Partly Cloudy 81 27.3 60 15.5 49 49 SE 3 6 29.94 1014 10 16.0934 0 0
2:35 pm 14:35 Mostly Cloudy 81 27.4 59 14.8 46 46 SSE 3 6 29.94 1014 10 16.0934 0 0
2:55 pm 14:55 Partly Cloudy 82 27.6 61 15.9 49 49 S 10 17 29.91 1013 10 16.0934 0 0
3:15 pm 15:15 Partly Cloudy 82 28 60 15.3 46 46 SSE 10 17 29.91 1013 10 16.0934 0 0
3:35 pm 15:35 Mostly Cloudy 81 27.2 59 15.2 48 48 S 8 13 29.91 1013 10 16.0934 0 0
3:55 pm 15:55 Cloudy 82 27.5 60 15.5 48 48 S 9 15 29.88 1012 10 16.0934 0 0
4:15 pm 16:15 Cloudy 81 27.2 60 15.6 49 49 S 16 26 29.91 1013 10 16.0934 0 0
4:35 pm 16:35 Cloudy with Light Rain 79 26.1 61 16 54 54 SSE 14 22 29.91 1013 10 16.0934 0 0
4:55 pm 16:55 Cloudy 80 26.7 60 15.5 50 50 SSE 10 17 29.91 1013 10 16.0934 0 0
5:15 pm 17:15 Cloudy 81 27.3 58 14.5 46 46 S 12 19 29.88 1012 10 16.0934 0 0
5:35 pm 17:35 Mostly Cloudy 82 27.6 58 14.5 45 45 SSE 12 19 29.88 1012 10 16.0934 0 0
5:55 pm 17:55 Mostly Cloudy 82 27.7 58 14.7 45 45 SSE 13 20 29.88 1012 10 16.0934 0 0
6:15 pm 18:15 Mostly Cloudy 80 26.6 58 14.5 47 47 SSE 14 22 29.91 1013 10 16.0934 0 0
6:35 pm 18:35 Mostly Cloudy 80 26.5 58 14.7 48 48 SSE 12 19 29.91 1013 10 16.0934 0 0
6:55 pm 18:55 Partly Cloudy 79 26.1 58 14.2 48 48 S 10 17 29.91 1013 10 16.0934 0 0
7:15 pm 19:15 Mostly Cloudy 79 26 56 13.6 46 46 SSE 12 19 29.91 1013 10 16.0934 0 0
7:35 pm 19:35 Mostly Cloudy 78 25.7 56 13.6 47 47 SSE 12 19 29.91 1013 10 16.0934 0 0
7:55 pm 19:55 Partly Cloudy 78 25.3 57 13.7 49 49 SSE 12 19 29.91 1013 10 16.0934 0 0
8:15 pm 20:15 Partly Cloudy 77 25.1 56 13.3 48 48 SSE 10 17 29.91 1013 10 16.0934 0 0
8:35 pm 20:35 Partly Cloudy 76 24.5 56 13.6 51 51 SSE 9 15 29.91 1013 10 16.0934 0 0
8:55 pm 20:55 Mostly Cloudy 76 24.5 55 12.9 48 48 SSE 13 20 29.91 1013 10 16.0934 0 0
9:15 pm 21:15 Mostly Cloudy 75 24 55 12.5 49 49 SSE 13 20 29.91 1013 10 16.0934 0 0
9:35 pm 21:35 Partly Cloudy 74 23.5 55 12.6 50 50 SSE 13 20 29.94 1014 10 16.0934 0 0
9:55 pm 21:55 Partly Cloudy 74 23.1 55 12.5 51 51 SSE 13 20 29.94 1014 10 16.0934 0 0
10:15 pm 22:15 Partly Cloudy 73 22.7 54 12.3 52 52 SSE 10 17 29.94 1014 10 16.0934 0 0
10:35 pm 22:35 Mostly Cloudy 72 22.4 54 12.3 53 53 SSE 9 15 29.94 1014 10 16.0934 0 0
10:55 pm 22:55 Partly Cloudy 72 22.1 53 11.6 51 51 SSE 10 17 29.94 1014 10 16.0934 0 0
11:15 pm 23:15 Clear 71 21.5 53 11.5 53 53 SSE 12 19 29.94 1014 10 16.0934 0 0
11:35 pm 23:35 Clear 70 21.2 53 11.4 54 54 SSE 9 15 29.94 1014 10 16.0934 0 0
11:55 pm 23:55 Clear 70 21 52 11.2 54 54 SSE 9 15 29.94 1014 10 16.0934 0 0

Powered by AerisWeather